312,2013-06-30 13:28:30,1372598910,55.38567,-9.89826,12,2,2013-06-30 13:27:00,1372598820,13.68,0,11,144,0,55.4068,-9.9256,0,32
313,2013-06-30 13:32:28,1372599148,55.36077,-8.22823,128,3,2013-06-30 13:32:00,1372599120,13.76,0,11,72,0,55.4084,-9.93559999999999,0,40
314,2013-06-30 13:37:29,1372599449,55.30257,-8.34389,130,2,2013-06-30 13:37:00,1372599420,13.76,0,11,11,0,55.4102,-9.94399999999999,0,36
315,2013-06-30 13:42:27,1372599747,55.4463,-10.49148,71,1,2013-06-30 13:42:00,1372599720,13.68,0,11,11,0,55.412,-9.9538,0,32
316,2013-06-30 13:47:52,1372600072,55.57896,-13.25142,234,2,2013-06-30 13:47:00,1372600020,13.56,0,11,8,0,55.413,-9.96339999999998,0,36
317,2013-06-30 13:50:22,1372600222,55.39585,-10.0226,3,3,2013-06-30 13:50:00,1372600200,13.48,0,11,34,0,55.4138,-9.97,0,32
318,2013-06-30 14:00:22,1372600822,55.43011,-9.97137,4,2,2013-06-30 14:00:00,1372600800,13.32,0,11,13,0,55.4164,-10.0018,0,28
319,2013-06-30 14:10:21,1372601421,55.40098,-9.96044,2,3,2013-06-30 14:10:00,1372601400,13.12,0,11,12,0,55.4128,-10.0052,0,28
320,2013-06-30 14:20:20,1372602020,55.40607,-9.89826,1,2,2013-06-30 14:20:00,1372602000,13.24,0,11,11,0,55.4052,-9.96379999999999,0,28
321,2013-06-30 14:30:20,1372602620,55.35654,-9.88742,1,2,2013-06-30 14:30:00,1372602600,13.32,0,11,10,0,55.4002,-9.929,0,32
325,2013-07-07 09:42:03,1373190123,55.43522,-9.90912,2,1,2013-07-07 09:41:00,1373190060,14.2,0,11,120,0,55.4406,-9.91999999999999,0,36
326,2013-07-07 09:47:21,1373190441,55.40607,-9.89826,7,2,2013-07-07 09:46:00,1373190360,14.08,0,11,57,0,55.4262,-9.92159999999998,0,36
327,2013-07-07 09:51:17,1373190677,55.40607,-9.89826,2,2,2013-07-07 09:51:00,1373190660,14,0,11,75,0,55.4118,-9.923,0,36
328,2013-07-07 09:56:58,1373191018,55.35654,-9.88742,5,1,2013-07-07 09:56:00,1373190960,14.08,0,11,11,0,55.3976,-9.92499999999998,0,44
329,2013-07-07 10:01:16,1373191276,55.38567,-9.89826,2,1,2013-07-07 10:01:00,1373191260,14.08,0,11,52,0,55.3832,-9.9272,0,44
330,2013-07-07 10:10:20,1373191820,55.35145,-9.94954,10,1,2013-07-07 10:10:00,1373191800,14.2,0,11,9,0,55.3574,-9.93099999999998,0,32
331,2013-07-07 10:20:21,1373192421,55.35654,-9.88742,3,1,2013-07-07 10:20:00,1373192400,14.32,0,11,10,0,55.3294,-9.93539999999999,0,28
332,2013-07-07 10:30:19,1373193019,55.29679,-10.00068,9,2,2013-07-07 10:30:00,1373193000,14.52,0,11,17,0,55.3016,-9.9402,0,36
333,2013-07-07 10:40:20,1373193620,55.45946,-6.97593,204,2,2013-07-07 10:40:00,1373193600,14.44,0,11,9,0,55.2742,-9.9444,0,32
334,2013-07-07 10:50:18,1373194218,55.25808,-9.48301,74,1,2013-07-07 10:50:00,1373194200,14.36,0,11,10,0,55.2466,-9.947,0,36
335,2013-07-07 11:00:17,1373194817,55.13571,-12.07285,151,2,2013-07-07 11:00:00,1373194800,14.36,0,11,8,0,55.2192,-9.9478,0,32
336,2013-07-07 11:10:20,1373195420,55.11644,-14.26451,283,1,2013-07-07 11:10:00,1373195400,14.44,0,11,7,0,55.1968,-9.94819999999999,0,32
337,2013-07-07 11:20:21,1373196021,55.22326,-9.91696,2,2,2013-07-07 11:20:00,1373196000,14.64,0,11,10,0,55.193,-9.94839999999999,0,32
338,2013-07-07 11:30:50,1373196650,55.1686,-9.96798,2,3,2013-07-07 11:30:00,1373196600,15.12,0,11,12,0,55.1918,-9.94899999999998,0,36
339,2013-07-07 11:40:18,1373197218,55.22326,-9.91696,5,1,2013-07-07 11:40:00,1373197200,15.52,0,11,41,0,55.1914,-9.9494,0,32
340,2013-07-07 11:50:54,1373197854,55.1686,-9.96798,3,1,2013-07-07 11:50:00,1373197800,15.44,0,11,8,0,55.1908,-9.9494,0,40
341,2013-07-07 12:00:29,1373198429,55.1686,-9.96798,4,1,2013-07-07 12:00:00,1373198400,15.84,0,11,44,0,55.1902,-9.9496,0,36
342,2013-07-07 12:10:46,1373199046,55.22326,-9.91696,10,1,2013-07-07 12:10:00,1373199000,16.48,0,11,19,0,55.1898,-9.9502,0,32
343,2013-07-07 12:21:11,1373199671,55.22326,-9.91696,7,1,2013-07-07 12:20:00,1373199600,17.4,0,11,36,0,55.1884,-9.9512,0,36
344,2013-07-07 12:30:21,1373200221,55.17369,-9.90615,3,5,2013-07-07 12:30:00,1373200200,18.44,0,11,61,0,55.1874,-9.952,0,40
345,2013-07-07 12:40:20,1373200820,55.17369,-9.90615,3,0,2013-07-07 12:40:00,1373200800,17.72,0,11,15,0,55.1866,-9.95259999999999,0,40
346,2013-07-07 12:50:21,1373201421,55.17369,-9.90615,3,2,2013-07-07 12:50:00,1373201400,13.16,0,11,9,0,55.1866,-9.952,0,40
347,2013-07-07 13:00:20,1373202020,55.16958,-9.58616,68,1,2013-07-07 13:00:00,1373202000,13.12,0,11,12,0,55.188,-9.94919999999999,0,40
348,2013-07-07 13:10:19,1373202619,55.30224,-11.92759,143,1,2013-07-07 13:10:00,1373202600,13.16,0,11,10,0,55.1894,-9.94579999999999,0,40
349,2013-07-07 13:20:20,1373203220,55.43396,-14.25101,284,1,2013-07-07 13:20:00,1373203200,13.16,4,11,9,0,55.19,-9.94459999999998,0,36
350,2013-07-07 13:31:05,1373203865,55.21816,-9.97886,4,1,2013-07-07 13:30:00,1373203800,13.16,5,11,10,0,55.1906,-9.9436,0,12
351,2013-07-07 13:40:21,1373204421,55.1686,-9.96798,4,1,2013-07-07 13:40:00,1373204400,13.16,5,11,55,0,55.1914,-9.9426,0,20
352,2013-07-07 13:50:36,1373205036,55.1686,-9.96798,6,1,2013-07-07 13:50:00,1373205000,13.16,5,11,12,0,55.1918,-9.94159999999999,0,28
353,2013-07-07 14:01:26,1373205686,55.1686,-9.96798,2,1,2013-07-07 14:00:00,1373205600,13.16,5,11,26,0,55.1924,-9.94059999999999,0,28
354,2013-07-07 14:10:57,1373206257,55.1686,-9.96798,2,0,2013-07-07 14:10:00,1373206200,13.16,7,11,76,0,55.193,-9.9392,0,28
355,2013-07-07 14:20:33,1373206833,55.22326,-9.91696,5,0,2013-07-07 14:20:00,1373206800,13.16,6,11,46,0,55.1934,-9.93799999999999,0,36
356,2013-07-07 14:30:21,1373207421,55.22326,-9.91696,4,0,2013-07-07 14:30:00,1373207400,13.24,9,11,23,0,55.1938,-9.9366,0,40
357,2013-07-07 14:40:32,1373208032,55.1686,-9.96798,7,2,2013-07-07 14:40:00,1373208000,13.32,8,11,11,0,55.1944,-9.93519999999998,0,8
358,2013-07-07 14:50:19,1373208619,55.17369,-9.90615,13,1,2013-07-07 14:50:00,1373208600,13.32,8,11,23,0,55.1948,-9.93359999999998,0,32
359,2013-07-07 15:00:20,1373209220,55.17369,-9.90615,3,1,2013-07-07 15:00:00,1373209200,13.32,7,11,11,0,55.1952,-9.93219999999999,0,4
360,2013-07-07 15:10:33,1373209833,55.29149,-11.72976,139,1,2013-07-07 15:10:00,1373209800,13.32,7,11,10,0,55.1956,-9.9306,0,44
361,2013-07-07 15:20:19,1373210419,55.41255,-13.91362,265,1,2013-07-07 15:20:00,1373210400,13.32,8,11,24,0,55.1958,-9.929,0,40
362,2013-07-07 15:30:21,1373211021,55.22326,-9.91696,4,0,2013-07-07 15:30:00,1373211000,13.32,7,11,10,0,55.1962,-9.92759999999998,0,36
363,2013-07-07 15:40:20,1373211620,55.1942,-9.90615,2,1,2013-07-07 15:40:00,1373211600,13.32,7,11,12,0,55.1964,-9.92599999999999,0,40
364,2013-07-07 15:50:18,1373212218,55.17369,-9.90615,1,1,2013-07-07 15:50:00,1373212200,13.32,7,11,11,0,55.1966,-9.9248,0,40
365,2013-07-07 16:00:20,1373212820,55.17369,-9.90615,1,1,2013-07-07 16:00:00,1373212800,13.32,8,11,10,0,55.197,-9.92339999999999,0,32
366,2013-07-07 16:10:20,1373213420,55.17369,-9.90615,2,1,2013-07-07 16:10:00,1373213400,13.24,7,11,10,0,55.197,-9.922,0,44
367,2013-07-07 16:20:48,1373214048,55.22326,-9.91696,3,1,2013-07-07 16:20:00,1373214000,13.24,8,11,10,0,55.1974,-9.92079999999999,0,40
368,2013-07-07 16:30:35,1373214635,55.21816,-9.97886,2,1,2013-07-07 16:30:00,1373214600,13.24,9,11,38,0,55.1976,-9.9196,0,40
369,2013-07-07 16:40:31,1373215231,55.21816,-9.97886,2,0,2013-07-07 16:40:00,1373215200,13.24,9,11,26,0,55.1978,-9.91819999999998,0,12
370,2013-07-07 16:50:37,1373215837,55.19766,-9.97886,2,1,2013-07-07 16:50:00,1373215800,13.32,9,11,21,0,55.1978,-9.917,0,48
371,2013-07-07 17:00:32,1373216432,55.1686,-9.96798,4,1,2013-07-07 17:00:00,1373216400,13.36,7,11,27,0,55.198,-9.916,0,48
372,2013-07-07 17:10:20,1373217020,55.16348,-10.02979,15,1,2013-07-07 17:10:00,1373217000,13.32,6,11,22,0,55.198,-9.91479999999999,0,44
373,2013-07-07 17:20:21,1373217621,55.24256,-11.07557,107,1,2013-07-07 17:20:00,1373217600,13.32,7,11,9,0,55.1982,-9.91379999999998,0,40
374,2013-07-07 17:30:30,1373218230,55.365,-12.98043,213,1,2013-07-07 17:30:00,1373218200,13.36,7,11,11,0,55.1984,-9.91299999999998,0,20
375,2013-07-07 17:40:20,1373218820,55.21816,-9.97886,3,0,2013-07-07 17:40:00,1373218800,13.36,9,11,21,0,55.1984,-9.91199999999998,0,12
376,2013-07-07 17:50:20,1373219420,55.22326,-9.91696,8,1,2013-07-07 17:50:00,1373219400,13.32,7,11,10,0,55.1986,-9.91139999999999,0,36
377,2013-07-07 18:01:34,1373220094,55.22832,-9.85504,3,5,2013-07-07 18:00:00,1373220000,13.36,8,10.8,10,0,55.1986,-9.91039999999998,0,0
378,2013-07-07 18:11:07,1373220667,55.17369,-9.90615,4,0,2013-07-07 18:10:00,1373220600,13.16,7,11,89,0,55.1986,-9.90979999999999,0,44
379,2013-07-07 18:20:44,1373221244,55.17369,-9.90615,5,0,2013-07-07 18:20:00,1373221200,13.44,6,10.8,56,0,55.1988,-9.90940000000001,0,44
380,2013-07-07 18:30:22,1373221822,55.19926,-9.84429,2,0,2013-07-07 18:30:00,1373221800,13.24,7,10.8,33,0,55.1988,-9.90899999999999,0,48
381,2013-07-07 18:40:20,1373222420,55.17875,-9.84429,2,1,2013-07-07 18:40:00,1373222400,13.32,6,10.8,13,0,55.1988,-9.90859999999998,0,56
382,2013-07-07 18:50:23,1373223023,55.17875,-9.84429,2,2,2013-07-07 18:50:00,1373223000,13.24,5,10.8,10,0,55.1988,-9.9084,0,48
383,2013-07-07 19:00:21,1373223621,55.17369,-9.90615,3,0,2013-07-07 19:00:00,1373223600,13.24,7,10.8,14,0,55.1992,-9.90859999999998,0,56
384,2013-07-07 19:10:31,1373224231,55.17786,-7.81041,146,1,2013-07-07 19:10:00,1373224200,13.16,6,10.8,12,0,55.1994,-9.90879999999999,0,52
385,2013-07-07 19:20:23,1373224823,55.24498,-10.37236,70,1,2013-07-07 19:20:00,1373224800,13.24,8,10.8,21,0,55.1998,-9.9092,0,60
386,2013-07-07 19:40:21,1373226021,55.50962,-14.80486,317,0,2013-07-07 19:40:00,1373226000,13.16,7,10.8,151,0,55.2002,-9.91,0,44
387,2013-07-07 19:50:19,1373226619,55.17875,-9.84429,3,1,2013-07-07 19:50:00,1373226600,13.16,7,10.8,10,0,55.2006,-9.91059999999999,0,24
388,2013-07-07 20:00:24,1373227224,55.22326,-9.91696,4,0,2013-07-07 20:00:00,1373227200,13.24,8,10.8,9,0,55.201,-9.911,0,56
389,2013-07-07 20:12:05,1373227925,55.19766,-9.97886,2,0,2013-07-07 20:10:00,1373227800,13.32,9,10.8,13,0,55.2014,-9.9118,0,56
390,2013-07-07 20:20:32,1373228432,55.17369,-9.90615,6,0,2013-07-07 20:20:00,1373228400,13.32,7,10.8,114,0,55.2016,-9.91239999999999,0,56
391,2013-07-07 20:31:15,1373229075,55.1686,-9.96798,2,2,2013-07-07 20:30:00,1373229000,13.24,8,10.8,22,0,55.202,-9.91319999999999,0,52
392,2013-07-07 20:41:07,1373229667,55.1686,-9.96798,3,1,2013-07-07 20:40:00,1373229600,13.24,7,10.8,65,0,55.2024,-9.91419999999999,0,52
393,2013-07-07 20:51:03,1373230263,55.17369,-9.90615,4,0,2013-07-07 20:50:00,1373230200,13.24,9,10.8,57,0,55.203,-9.91499999999999,0,52
394,2013-07-07 21:00:50,1373230850,55.17369,-9.90615,8,2,2013-07-07 21:00:00,1373230800,13.24,8,10.8,52,0,55.2036,-9.916,0,52
395,2013-07-07 21:10:21,1373231421,55.17369,-9.90615,15,2,2013-07-07 21:10:00,1373231400,13.16,9,10.8,40,0,55.204,-9.917,0,24
396,2013-07-07 21:20:20,1373232020,55.10352,-8.17441,156,2,2013-07-07 21:20:00,1373232000,13.16,9,10.8,11,0,55.2048,-9.9178,0,44
397,2013-07-07 21:30:21,1373232621,55.17369,-9.90615,3,2,2013-07-07 21:30:00,1373232600,13.16,9,10.8,12,0,55.2054,-9.9188,0,48
398,2013-07-07 21:40:19,1373233219,55.1686,-9.96798,3,1,2013-07-07 21:40:00,1373233200,13.16,8,10.8,11,0,55.206,-9.9196,0,44
399,2013-07-07 21:50:38,1373233838,55.22832,-9.85504,4,2,2013-07-07 21:50:00,1373233800,13.24,10,10.8,12,0,55.2064,-9.9204,0,12
400,2013-07-07 22:00:21,1373234421,55.22832,-9.85504,2,2,2013-07-07 22:00:00,1373234400,13.16,7,10.8,28,0,55.207,-9.9212,0,44
401,2013-07-07 22:10:31,1373235031,55.1942,-9.90615,1,2,2013-07-07 22:10:00,1373235000,13.16,8,10.8,11,0,55.2076,-9.922,0,40
402,2013-07-07 22:20:21,1373235621,55.17369,-9.90615,1,2,2013-07-07 22:20:00,1373235600,13.16,9,10.8,21,0,55.2084,-9.92259999999999,0,0
403,2013-07-07 22:30:20,1373236220,55.17369,-9.90615,2,2,2013-07-07 22:30:00,1373236200,13.16,6,10.8,11,0,55.209,-9.92319999999998,0,0
404,2013-07-07 22:40:48,1373236848,55.17369,-9.90615,3,2,2013-07-07 22:40:00,1373236800,13.24,7,10.8,10,0,55.2098,-9.9238,0,32
405,2013-07-07 22:50:21,1373237421,55.17369,-9.90615,3,2,2013-07-07 22:50:00,1373237400,13.24,7,10.8,39,0,55.2104,-9.92439999999999,0,32
406,2013-07-07 23:00:46,1373238046,55.21816,-9.97886,2,2,2013-07-07 23:00:00,1373238000,13.16,8,10.8,11,0,55.2114,-9.92499999999998,0,36
407,2013-07-07 23:10:49,1373238649,55.21816,-9.97886,2,2,2013-07-07 23:10:00,1373238600,13.16,8,10.8,36,0,55.2122,-9.9256,0,32
408,2013-07-07 23:22:14,1373239334,55.1686,-9.96798,13,2,2013-07-07 23:20:00,1373239200,13.24,6,10.8,39,0,55.213,-9.92579999999998,0,32
409,2013-07-07 23:30:21,1373239821,55.20787,-10.10259,24,1,2013-07-07 23:30:00,1373239800,13.24,6,10.8,124,0,55.214,-9.92599999999999,0,36
410,2013-07-07 23:40:21,1373240421,55.29149,-11.72976,136,2,2013-07-07 23:40:00,1373240400,13.24,7,10.8,11,0,55.215,-9.92619999999999,0,44
411,2013-07-07 23:50:46,1373241046,55.54635,-16.48632,432,2,2013-07-07 23:50:00,1373241000,13.24,6,10.8,11,0,55.2158,-9.92619999999999,0,44
412,2013-07-08 00:00:18,1373241618,55.1686,-9.96798,12,1,2013-07-08 00:00:00,1373241600,13.24,7,10.8,36,0,55.2168,-9.9264,0,44
413,2013-07-08 00:10:21,1373242221,55.25234,-9.92779,8,2,2013-07-08 00:10:00,1373242200,13.24,7,10.8,9,0,55.218,-9.92619999999999,0,16
414,2013-07-08 00:20:29,1373242829,55.24828,-9.60711,95,1,2013-07-08 00:20:00,1373242800,13.24,6,10.8,10,0,55.219,-9.92579999999998,0,40
415,2013-07-08 00:30:22,1373243422,55.19738,-11.96309,152,2,2013-07-08 00:30:00,1373243400,13.16,7,10.8,18,0,55.22,-9.92519999999999,0,44
416,2013-07-08 00:40:30,1373244030,55.22832,-9.85504,2,2,2013-07-08 00:40:00,1373244000,13.16,6,10.8,11,0,55.2208,-9.9246,0,40
417,2013-07-08 00:50:22,1373244622,55.22832,-9.85504,2,2,2013-07-08 00:50:00,1373244600,13.16,5,10.8,19,0,55.2218,-9.9238,0,20
418,2013-07-08 01:00:31,1373245231,55.22326,-9.91696,2,2,2013-07-08 01:00:00,1373245200,13.16,8,10.8,12,0,55.2228,-9.92259999999999,0,48
419,2013-07-08 01:10:37,1373245837,55.22832,-9.85504,2,2,2013-07-08 01:10:00,1373245800,13.16,5,10.8,21,0,55.2238,-9.92140000000001,0,48
420,2013-07-08 01:20:21,1373246421,55.22326,-9.91696,2,2,2013-07-08 01:20:00,1373246400,13.16,3,10.8,27,0,55.2248,-9.91999999999999,0,48
421,2013-07-08 01:30:21,1373247021,55.22326,-9.91696,2,1,2013-07-08 01:30:00,1373247000,13.16,4,10.8,12,0,55.2258,-9.9186,0,48
422,2013-07-08 01:40:21,1373247621,55.22832,-9.85504,2,2,2013-07-08 01:40:00,1373247600,13.16,5,10.8,11,0,55.2266,-9.917,0,48
423,2013-07-08 01:50:19,1373248219,55.22832,-9.85504,3,2,2013-07-08 01:50:00,1373248200,13.16,5,10.8,11,0,55.2274,-9.91540000000001,0,40
424,2013-07-08 02:00:20,1373248820,55.19926,-9.84429,9,1,2013-07-08 02:00:00,1373248800,13.16,4,10.8,9,0,55.2282,-9.9136,0,40
425,2013-07-08 02:10:20,1373249420,55.25741,-9.86581,4,1,2013-07-08 02:10:00,1373249400,13.16,5,10.8,10,0,55.2288,-9.9118,0,28
426,2013-07-08 02:21:58,1373250118,55.22896,-9.47266,76,1,2013-07-08 02:20:00,1373250000,13.16,6,10.8,9,0,55.2296,-9.91,0,32
427,2013-07-08 02:30:36,1373250636,55.16382,-11.69149,132,2,2013-07-08 02:30:00,1373250600,13.16,4,10.8,107,0,55.2302,-9.90799999999999,0,36
428,2013-07-08 02:40:19,1373251219,55.13794,-13.82302,259,5,2013-07-08 02:40:00,1373251200,13.16,4,10.8,25,0,55.2306,-9.90600000000001,0,32
429,2013-07-08 02:50:21,1373251821,55.22832,-9.85504,2,2,2013-07-08 02:50:00,1373251800,13.16,4,10.8,8,0,55.2312,-9.90379999999999,0,36
430,2013-07-08 03:00:21,1373252421,55.22326,-9.91696,3,1,2013-07-08 03:00:00,1373252400,13.12,5,10.8,11,0,55.2316,-9.9016,0,40
431,2013-07-08 03:10:21,1373253021,55.22326,-9.91696,2,2,2013-07-08 03:10:00,1373253000,13.16,4,10.8,10,0,55.2318,-9.89919999999998,0,44
432,2013-07-08 03:20:21,1373253621,55.22326,-9.91696,2,1,2013-07-08 03:20:00,1373253600,13.04,4,10.8,10,0,55.2322,-9.8972,0,40
433,2013-07-08 03:30:16,1373254216,55.22326,-9.91696,2,1,2013-07-08 03:30:00,1373254200,13,6,10.8,10,0,55.2324,-9.8948,0,40
434,2013-07-08 03:40:19,1373254819,55.22326,-9.91696,2,1,2013-07-08 03:40:00,1373254800,13.12,5,10.8,5,0,55.2326,-9.89259999999999,0,44
435,2013-07-08 03:50:20,1373255420,55.25234,-9.92779,2,1,2013-07-08 03:50:00,1373255400,13.16,5,10.8,7,0,55.2328,-9.89059999999998,0,48
436,2013-07-08 04:00:19,1373256019,55.25234,-9.92779,4,2,2013-07-08 04:00:00,1373256000,13.12,7,10.8,8,0,55.2328,-9.88839999999999,0,4
437,2013-07-08 04:10:22,1373256622,55.22832,-9.85504,3,2,2013-07-08 04:10:00,1373256600,13.16,5,10.8,9,0,55.2328,-9.8862,0,48
438,2013-07-08 04:20:22,1373257222,55.22832,-9.85504,3,1,2013-07-08 04:20:00,1373257200,13.12,5,10.8,10,0,55.233,-9.88399999999999,0,48
439,2013-07-08 04:30:18,1373257818,55.16304,-10.73146,1458,2,2013-07-08 04:30:00,1373257800,13.16,5,10.8,10,0,55.233,-9.88200000000001,0,48
440,2013-07-08 04:40:15,1373258415,55.22326,-9.91696,3,1,2013-07-08 04:40:00,1373258400,13.16,5,10.8,7,0,55.233,-9.87979999999999,0,16
441,2013-07-08 04:50:45,1373259045,55.22832,-9.85504,5,1,2013-07-08 04:50:00,1373259000,13.16,7,10.8,3,0,55.2328,-9.87779999999998,0,44
442,2013-07-08 05:00:16,1373259616,55.22832,-9.85504,3,1,2013-07-08 05:00:00,1373259600,13.16,5,10.8,33,0,55.2328,-9.876,0,44
443,2013-07-08 05:10:19,1373260219,55.22832,-9.85504,2,1,2013-07-08 05:10:00,1373260200,13.16,7,10.8,4,0,55.2326,-9.8742,0,40
444,2013-07-08 05:20:20,1373260820,55.22832,-9.85504,1,1,2013-07-08 05:20:00,1373260800,13.16,5,10.8,7,0,55.2324,-9.87219999999999,0,44
445,2013-07-08 05:30:17,1373261417,55.22832,-9.85504,2,1,2013-07-08 05:30:00,1373261400,13.16,4,10.8,9,0,55.2322,-9.8706,0,40
446,2013-07-08 05:40:21,1373262021,55.22832,-9.85504,3,2,2013-07-08 05:40:00,1373262000,13.16,6,10.8,6,0,55.2318,-9.869,0,36
447,2013-07-08 05:50:18,1373262618,55.22832,-9.85504,4,1,2013-07-08 05:50:00,1373262600,13.16,4,10.8,10,0,55.2312,-9.8674,0,40
448,2013-07-08 06:00:20,1373263220,55.22326,-9.91696,2,1,2013-07-08 06:00:00,1373263200,13.16,6,10.8,7,0,55.2308,-9.86599999999999,0,48
449,2013-07-08 06:10:21,1373263821,55.22326,-9.91696,2,1,2013-07-08 06:10:00,1373263800,13.24,6,10.8,9,0,55.2304,-9.8648,0,48
450,2013-07-08 06:20:17,1373264417,55.42736,-6.08182,252,1,2013-07-08 06:20:00,1373264400,13.16,5,10.8,9,0,55.23,-9.86359999999999,0,48
451,2013-07-08 06:30:22,1373265022,55.1942,-9.90615,4,1,2013-07-08 06:30:00,1373265000,13.16,4,10.8,6,0,55.2296,-9.86259999999999,0,44
452,2013-07-08 06:40:20,1373265620,55.22889,-10.55787,84,1,2013-07-08 06:40:00,1373265600,13.16,6,10.8,11,0,55.2292,-9.86199999999999,0,48
453,2013-07-08 06:50:21,1373266221,55.19869,-12.54244,186,1,2013-07-08 06:50:00,1373266200,13.16,6,10.8,8,0,55.2288,-9.8614,0,52
454,2013-07-08 07:00:22,1373266822,55.22326,-9.91696,2,2,2013-07-08 07:00:00,1373266800,13.16,6,10.8,10,0,55.2282,-9.86079999999998,0,48
455,2013-07-08 07:10:22,1373267422,55.22326,-9.91696,2,1,2013-07-08 07:10:00,1373267400,13.24,6,10.8,11,0,55.2278,-9.86060000000001,0,44
456,2013-07-08 07:20:22,1373268022,55.22326,-9.91696,2,1,2013-07-08 07:20:00,1373268000,13.24,6,10.8,11,0,55.2274,-9.8604,0,40
457,2013-07-08 07:30:20,1373268620,55.22326,-9.91696,3,1,2013-07-08 07:30:00,1373268600,13.32,6,10.8,11,0,55.227,-9.8604,0,32
458,2013-07-08 07:40:20,1373269220,55.22326,-9.91696,4,1,2013-07-08 07:40:00,1373269200,13.36,5,10.8,9,0,55.2264,-9.8604,0,40
459,2013-07-08 07:50:20,1373269820,55.25741,-9.86581,5,1,2013-07-08 07:50:00,1373269800,13.36,5,10.8,9,0,55.2262,-9.86079999999998,0,0
460,2013-07-08 08:00:20,1373270420,55.23336,-9.79309,2,1,2013-07-08 08:00:00,1373270400,13.44,5,10.8,9,0,55.2258,-9.86099999999999,0,40
461,2013-07-08 08:10:20,1373271020,55.20428,-9.78241,11,1,2013-07-08 08:10:00,1373271000,13.44,5,10.8,9,0,55.2254,-9.8614,0,44
462,2013-07-08 08:20:25,1373271625,55.23336,-9.79309,3,0,2013-07-08 08:20:00,1373271600,13.64,6,10.8,9,0,55.225,-9.8622,0,44
463,2013-07-08 08:30:21,1373272221,55.23336,-9.79309,4,1,2013-07-08 08:30:00,1373272200,13.68,6,10.8,13,0,55.2248,-9.86279999999999,0,44
464,2013-07-08 08:40:22,1373272822,55.18217,-10.16442,73,1,2013-07-08 08:40:00,1373272800,13.88,6,10.8,9,0,55.2244,-9.86359999999999,0,36
465,2013-07-08 08:50:23,1373273423,55.11707,-12.25678,168,2,2013-07-08 08:50:00,1373273400,14,5,10.8,11,0,55.2242,-9.8646,0,36
466,2013-07-08 09:00:20,1373274020,55.14291,-14.79791,321,2,2013-07-08 09:00:00,1373274000,13.88,5,10.8,12,0,55.224,-9.8656,0,36
467,2013-07-08 09:10:22,1373274622,55.23336,-9.79309,2,1,2013-07-08 09:10:00,1373274600,13.68,4,10.8,9,0,55.2238,-9.86660000000001,0,32
468,2013-07-08 09:20:19,1373275219,55.22832,-9.85504,3,1,2013-07-08 09:20:00,1373275200,14.08,6,10.8,11,0,55.2234,-9.86779999999999,0,32
469,2013-07-08 09:30:20,1373275820,55.22832,-9.85504,4,1,2013-07-08 09:30:00,1373275800,14.2,4,10.8,8,0,55.2232,-9.86879999999999,0,32
470,2013-07-08 09:40:21,1373276421,55.22326,-9.91696,2,0,2013-07-08 09:40:00,1373276400,14.12,4,10.8,9,0,55.2232,-9.87,0,32
471,2013-07-08 09:50:22,1373277022,55.25741,-9.86581,7,1,2013-07-08 09:50:00,1373277000,14.24,5,10.8,9,0,55.223,-9.87119999999999,0,44
472,2013-07-08 10:00:17,1373277617,55.22326,-9.91696,1,1,2013-07-08 10:00:00,1373277600,14.52,5,10.8,11,0,55.2228,-9.87260000000001,0,40
473,2013-07-08 10:10:22,1373278222,55.22326,-9.91696,2,1,2013-07-08 10:10:00,1373278200,14.36,5,10.8,6,0,55.2226,-9.87379999999999,0,36
474,2013-07-08 10:20:20,1373278820,55.22326,-9.91696,4,1,2013-07-08 10:20:00,1373278800,14.32,4,10.8,11,0,55.2226,-9.87519999999998,0,8
475,2013-07-08 10:30:19,1373279419,55.25741,-9.86581,9,1,2013-07-08 10:30:00,1373279400,14.32,4,10.8,9,0,55.2226,-9.87619999999998,0,36
476,2013-07-08 10:40:23,1373280023,55.23336,-9.79309,25,1,2013-07-08 10:40:00,1373280000,14.44,6,10.8,8,0,55.2224,-9.8776,0,36
477,2013-07-08 10:50:21,1373280621,55.27333,-9.16235,80,1,2013-07-08 10:50:00,1373280600,14.2,4,10.8,12,0,55.2226,-9.87879999999998,0,36
478,2013-07-08 11:00:22,1373281222,55.03844,-13.71735,259,1,2013-07-08 11:00:00,1373281200,14.24,4,10.8,10,0,55.2226,-9.8802,0,32
479,2013-07-08 11:10:20,1373281820,55.22326,-9.91696,6,2,2013-07-08 11:10:00,1373281800,14.32,6,10.8,11,0,55.2228,-9.88139999999999,0,32
480,2013-07-08 11:20:23,1373282423,55.19926,-9.84429,3,2,2013-07-08 11:20:00,1373282400,14.36,4,10.8,9,0,55.223,-9.88239999999999,0,36
481,2013-07-08 11:30:20,1373283020,55.22832,-9.85504,2,3,2013-07-08 11:30:00,1373283000,14.36,4,10.8,12,0,55.2232,-9.8836,0,40
482,2013-07-08 11:40:22,1373283622,55.22832,-9.85504,1,2,2013-07-08 11:40:00,1373283600,14.2,4,10.8,11,0,55.2234,-9.8844,0,40
483,2013-07-08 11:50:20,1373284220,55.22326,-9.91696,2,2,2013-07-08 11:50:00,1373284200,14.2,6,10.8,12,0,55.2236,-9.8852,0,44
484,2013-07-08 12:00:20,1373284820,55.22832,-9.85504,3,2,2013-07-08 12:00:00,1373284800,14.2,5,10.8,10,0,55.2238,-9.886,0,36
485,2013-07-08 12:10:14,1373285414,55.25741,-9.86581,4,3,2013-07-08 12:10:00,1373285400,14.36,6,10.8,10,0,55.2242,-9.88659999999999,0,36
486,2013-07-08 12:20:18,1373286018,55.22326,-9.91696,3,2,2013-07-08 12:20:00,1373286000,14.32,3,10.8,5,0,55.2244,-9.88719999999998,0,40
487,2013-07-08 12:30:29,1373286629,55.17875,-9.84429,6,2,2013-07-08 12:30:00,1373286600,14.52,4,10.8,8,0,55.2248,-9.88759999999999,0,40
488,2013-07-08 12:40:21,1373287221,55.17875,-9.84429,13,2,2013-07-08 12:40:00,1373287200,14.52,4,10.8,19,0,55.2252,-9.88800000000001,0,40
489,2013-07-08 12:50:20,1373287820,55.25741,-9.86581,1538,2,2013-07-08 12:50:00,1373287800,14.56,3,10.8,10,0,55.2256,-9.88839999999999,0,40
490,2013-07-08 13:00:21,1373288421,55.30833,-11.86594,158,2,2013-07-08 13:00:00,1373288400,14.64,3,10.8,10,0,55.2262,-9.8886,0,36
491,2013-07-08 13:11:02,1373289062,55.22832,-9.85504,4,2,2013-07-08 13:10:00,1373289000,14.56,3,10.8,11,0,55.2266,-9.8888,0,40
492,2013-07-08 13:20:22,1373289622,55.22326,-9.91696,3,1,2013-07-08 13:20:00,1373289600,14.56,3,10.8,51,0,55.227,-9.8888,0,36
493,2013-07-08 13:30:19,1373290219,55.22832,-9.85504,2,2,2013-07-08 13:30:00,1373290200,14.56,3,10.8,11,0,55.2276,-9.8888,0,32
494,2013-07-08 13:40:20,1373290820,55.22326,-9.91696,5,2,2013-07-08 13:40:00,1373290800,14.64,2,10.8,8,0,55.228,-9.8886,0,28
495,2013-07-08 13:50:25,1373291425,55.22832,-9.85504,1,2,2013-07-08 13:50:00,1373291400,14.68,2,10.8,9,0,55.2286,-9.88819999999998,0,28
496,2013-07-08 14:00:20,1373292020,55.22832,-9.85504,2,2,2013-07-08 14:00:00,1373292000,14.84,3,10.8,15,0,55.2292,-9.8878,0,28